GALAXY 13 (HORIZONS-1) (27954 NORAD) Tracking and Keplerian Element Data

This shows tracking and keplerian element data for the satellite.

Feedback or suggestion? Click here.




ElementValue
Catalog27954
NameGALAXY 13 (HORIZONS-1)
Epoch Orbit4477
Epoch Day354.16486575
Epoch Year2025
RAAN86.3748
Inclination0.9556
Eccentricity0.0002395
Argument of Perigee177.2022
Mean Anonmoly94.7626
Mean Motion1.00269643
Decay Rate1.56E-06
L11 27954U 03044A 25354.16486575 .00000156 00000+0 00000+0 0 9999
L22 27954 0.9556 86.3748 0002395 177.2022 94.7626 1.00269643 44777



Live tracking and technical data element details for GALAXY 13 (HORIZONS-1) (NORAD 27954). GALAXY 13 (HORIZONS-1) can be tracked NOW for your location showing map with azimuth and elevation plus other details from your city location.







IsCatalogInMostPopularTable: catalog: 27954, numindb: 386
Update: records affected: 1



GetName: 27954 GALAXY 13 (HORIZONS-1)

Hit Count: updated at: Thu, 16 Apr 2026 05:49:59 GMT